Glasgow, KY

12:02 AM CST on February 21, 2017 (GMT -0600)
Glasgow Municipal

Weather History for KGLW - May, 2013

Change the Weather History Date:

Thursday, May 30, 2013

  Actual Average Record
Temperature  
Mean Temperature 77 °F -  
Max Temperature 85 °F 80 °F 92 °F (1987)
Min Temperature 69 °F 58 °F 37 °F (1984)
Cooling Degree Days 12    
Growing Degree Days 27 (Base 50)    
Moisture  
Dew Point 63 °F    
Average Humidity 62    
Maximum Humidity 73    
Minimum Humidity 52    
Precipitation  
Precipitation 0.00 in - - ()
Sea Level Pressure  
Sea Level Pressure 30.10 in    
Wind  
Wind Speed 7 mph (South)    
Max Wind Speed 15 mph    
Max Gust Speed 22 mph    
Visibility 10 miles    
Events      
Averages and records for this station are not official NWS values.
T = Trace of Precipitation, MM = Missing Value Source: NWS Daily Summary

Daily Weather History Graph

Daily Weather History Graph

Search for Another Location

Airport or City:

Trip Planner

Search our weather history database for the weather conditions in past years. The results will help you decide how hot, cold, wet, or windy it might be!

Date:

Astronomy

May. 30, 2013 Rise Set
Actual Time 5:26 AM CDT 7:56 PM CDT
Civil Twilight 4:56 AM CDT 8:27 PM CDT
Nautical Twilight 4:18 AM CDT 9:04 PM CDT
Astronomical Twilight 3:37 AM CDT 9:45 PM CDT
Moon 12:02 AM CDT (5/30) 11:28 AM CDT (5/30)
Length of Visible Light 15h 30m
Length of Day
14h 30m
Waning Gibbous, 62% of the Moon is Illuminated
May 30
Waning Gibbous
May 31
Last Quarter
Jun 8
New
Jun 16
First Quarter
Jun 23
Full

Hourly Weather History & Observations

Time (CDT) Temp. Heat Index Dew Point Humidity Pressure Visibility Wind Dir Wind Speed Gust Speed Precip Events Conditions
12:15 AM 73.6 °F - 59.5 °F 61% 30.08 in 10.0 mi South 3.5 mph - N/A   Clear
12:35 AM 72.7 °F - 59.4 °F 63% 30.09 in 10.0 mi SSE 4.6 mph - N/A   Clear
12:55 AM 72.7 °F - 59.2 °F 62% 30.10 in 10.0 mi South 5.8 mph - N/A   Clear
1:15 AM 72.3 °F - 59.0 °F 63% 30.10 in 10.0 mi SSE 3.5 mph - N/A   Clear
1:35 AM 72.1 °F - 59.0 °F 63% 30.10 in 10.0 mi SSE 5.8 mph - N/A   Clear
1:55 AM 71.8 °F - 59.0 °F 64% 30.10 in 10.0 mi SSE 3.5 mph - N/A   Clear
2:15 AM 71.4 °F - 59.2 °F 65% 30.10 in 10.0 mi South 4.6 mph - N/A   Clear
2:35 AM 71.1 °F - 59.5 °F 67% 30.10 in 10.0 mi SSE 3.5 mph - N/A   Clear
2:55 AM 70.9 °F - 59.9 °F 68% 30.10 in 10.0 mi SSE 5.8 mph - N/A   Clear
3:15 AM 70.7 °F - 59.9 °F 69% 30.10 in 10.0 mi SSE 4.6 mph - N/A   Clear
3:35 AM 70.7 °F - 60.1 °F 69% 30.10 in 10.0 mi SSE 4.6 mph - N/A   Clear
3:55 AM 70.5 °F - 60.3 °F 70% 30.11 in 10.0 mi SSE 4.6 mph - N/A   Clear
4:15 AM 70.3 °F - 60.3 °F 70% 30.11 in 10.0 mi SSE 3.5 mph - N/A   Clear
4:35 AM 70.0 °F - 60.4 °F 72% 30.11 in 10.0 mi SSE 3.5 mph - N/A   Clear
4:55 AM 69.8 °F - 60.4 °F 72% 30.11 in 10.0 mi South 4.6 mph - N/A   Clear
5:15 AM 69.8 °F - 60.4 °F 72% 30.11 in 10.0 mi South 4.6 mph - N/A   Clear
5:35 AM 69.4 °F - 60.4 °F 73% 30.12 in 10.0 mi SSE 3.5 mph - N/A   Clear
5:55 AM 69.6 °F - 60.6 °F 73% 30.13 in 10.0 mi SSE 5.8 mph - N/A   Clear
6:15 AM 70.0 °F - 60.8 °F 73% 30.13 in 10.0 mi SSE 5.8 mph - N/A   Clear
6:35 AM 70.7 °F - 61.0 °F 71% 30.14 in 10.0 mi SSE 5.8 mph - N/A   Clear
6:55 AM 71.4 °F - 61.3 °F 70% 30.15 in 10.0 mi SSE 6.9 mph - N/A   Scattered Clouds
7:15 AM 72.7 °F - 61.5 °F 68% 30.15 in 10.0 mi South 5.8 mph - N/A   Mostly Cloudy
7:35 AM 74.1 °F - 61.7 °F 65% 30.15 in 10.0 mi South 10.4 mph - N/A   Mostly Cloudy
7:55 AM 74.5 °F - 61.7 °F 64% 30.15 in 10.0 mi SSE 8.1 mph 16.1 mph N/A   Mostly Cloudy
8:15 AM 75.4 °F - 61.9 °F 63% 30.15 in 10.0 mi South 11.5 mph 19.6 mph N/A   Mostly Cloudy
8:35 AM 77.0 °F - 62.6 °F 61% 30.15 in 10.0 mi South 10.4 mph 16.1 mph N/A   Mostly Cloudy
8:55 AM 78.6 °F - 63.1 °F 59% 30.15 in 10.0 mi South 11.5 mph 18.4 mph N/A   Scattered Clouds
9:15 AM 78.8 °F - 63.5 °F 59% 30.15 in 10.0 mi South 15.0 mph 21.9 mph N/A   Clear
9:35 AM 79.3 °F - 63.9 °F 59% 30.14 in 10.0 mi SSW 13.8 mph 21.9 mph N/A   Scattered Clouds
9:55 AM 80.1 °F 81.7 °F 64.2 °F 58% 30.14 in 10.0 mi South 15.0 mph 19.6 mph N/A   Clear
10:15 AM 81.1 °F 82.8 °F 64.6 °F 57% 30.14 in 10.0 mi South 13.8 mph 18.4 mph N/A   Clear
10:35 AM 82.0 °F 83.8 °F 65.1 °F 56% 30.14 in 10.0 mi South 11.5 mph 18.4 mph N/A   Scattered Clouds
10:55 AM 82.8 °F 84.7 °F 65.5 °F 56% 30.14 in 10.0 mi South 11.5 mph 19.6 mph N/A   Scattered Clouds
11:15 AM 82.9 °F 85.0 °F 65.7 °F 56% 30.14 in 10.0 mi South 12.7 mph 18.4 mph N/A   Mostly Cloudy
11:35 AM 82.9 °F 84.8 °F 65.3 °F 55% 30.14 in 10.0 mi South 10.4 mph 16.1 mph N/A   Overcast
11:55 AM 83.5 °F 85.5 °F 65.7 °F 55% 30.13 in 10.0 mi South 10.4 mph 17.3 mph N/A   Overcast
12:15 PM 83.3 °F 85.3 °F 65.7 °F 55% 30.13 in 10.0 mi South 11.5 mph 18.4 mph N/A   Overcast
12:35 PM 83.7 °F 85.8 °F 65.8 °F 55% 30.12 in 10.0 mi South 9.2 mph 17.3 mph N/A   Mostly Cloudy
12:55 PM 84.2 °F 86.6 °F 66.2 °F 55% 30.12 in 10.0 mi South 10.4 mph 17.3 mph N/A   Mostly Cloudy
1:15 PM 85.1 °F 87.1 °F 65.5 °F 52% 30.11 in 10.0 mi SSE 11.5 mph 16.1 mph N/A   Scattered Clouds
1:35 PM 82.8 °F 84.3 °F 64.8 °F 54% 30.12 in 10.0 mi SSW 11.5 mph 19.6 mph N/A   Mostly Cloudy
1:55 PM 81.9 °F 83.7 °F 65.5 °F 57% 30.11 in 10.0 mi SSW 12.7 mph 16.1 mph N/A   Scattered Clouds
2:15 PM 83.7 °F 86.2 °F 66.7 °F 57% 30.09 in 10.0 mi South 10.4 mph - N/A   Clear
2:35 PM 85.1 °F 87.4 °F 66.4 °F 53% 30.08 in 10.0 mi SSW 8.1 mph - N/A   Clear
2:55 PM 84.9 °F 87.4 °F 66.7 °F 54% 30.08 in 10.0 mi South 6.9 mph - N/A   Scattered Clouds
3:15 PM 84.9 °F 87.4 °F 66.4 °F 54% 30.07 in 10.0 mi South 10.4 mph - N/A   Scattered Clouds
3:35 PM 83.8 °F 86.0 °F 65.8 °F 55% 30.07 in 10.0 mi South 11.5 mph 16.1 mph N/A   Scattered Clouds
3:55 PM 83.8 °F 86.0 °F 66.0 °F 55% 30.07 in 10.0 mi SSW 8.1 mph 16.1 mph N/A   Clear
4:15 PM 84.0 °F 86.0 °F 65.8 °F 54% 30.06 in 10.0 mi South 11.5 mph - N/A   Clear
4:35 PM 83.8 °F 85.6 °F 65.3 °F 53% 30.04 in 10.0 mi South 6.9 mph - N/A   Clear
4:55 PM 83.1 °F 85.0 °F 65.3 °F 55% 30.04 in 10.0 mi South 8.1 mph - N/A   Clear
5:15 PM 82.8 °F 84.7 °F 65.7 °F 56% 30.04 in 10.0 mi South 8.1 mph - N/A   Scattered Clouds
5:35 PM 83.3 °F 85.1 °F 65.3 °F 54% 30.04 in 10.0 mi South 8.1 mph - N/A   Scattered Clouds
5:55 PM 83.1 °F 84.6 °F 64.6 °F 53% 30.04 in 10.0 mi South 9.2 mph 19.6 mph N/A   Mostly Cloudy
6:15 PM 81.7 °F 83.0 °F 63.7 °F 54% 30.05 in 10.0 mi SSE 9.2 mph - N/A   Mostly Cloudy
6:35 PM 81.0 °F 82.5 °F 64.0 °F 56% 30.04 in 10.0 mi South 9.2 mph - N/A   Scattered Clouds
6:55 PM 81.1 °F 82.7 °F 64.2 °F 56% 30.04 in 10.0 mi SSE 10.4 mph 17.3 mph N/A   Clear
7:15 PM 80.4 °F 82.0 °F 64.0 °F 57% 30.04 in 10.0 mi SSE 6.9 mph 17.3 mph N/A   Clear
7:35 PM 79.2 °F - 63.7 °F 59% 30.04 in 10.0 mi SSE 6.9 mph - N/A   Clear
7:55 PM 78.1 °F - 63.3 °F 60% 30.04 in 10.0 mi SSE 8.1 mph 16.1 mph N/A   Clear
8:15 PM 77.4 °F - 62.2 °F 59% 30.04 in 10.0 mi SSE 6.9 mph - N/A   Clear
8:35 PM 76.6 °F - 62.4 °F 61% 30.04 in 10.0 mi SSE 3.5 mph - N/A   Clear
8:55 PM 76.1 °F - 62.6 °F 63% 30.06 in 10.0 mi South 5.8 mph - N/A   Clear
9:15 PM 75.7 °F - 62.6 °F 64% 30.06 in 10.0 mi South 5.8 mph - N/A   Clear
9:35 PM 75.2 °F - 62.6 °F 65% 30.07 in 10.0 mi South 5.8 mph - N/A   Clear
9:55 PM 75.0 °F - 62.6 °F 65% 30.08 in 10.0 mi South 4.6 mph - N/A   Clear
10:15 PM 74.7 °F - 62.8 °F 66% 30.08 in 10.0 mi South 4.6 mph - N/A   Clear
10:35 PM 74.3 °F - 63.0 °F 68% 30.08 in 10.0 mi South 4.6 mph - N/A   Clear
10:55 PM 73.9 °F - 63.0 °F 68% 30.08 in 10.0 mi SSE 5.8 mph - N/A   Clear
11:15 PM 73.8 °F - 63.0 °F 69% 30.08 in 10.0 mi South 5.8 mph - N/A   Clear
11:35 PM 73.8 °F - 63.0 °F 69% 30.08 in 10.0 mi South 6.9 mph - N/A   Clear
11:55 PM 73.8 °F - 63.0 °F 69% 30.08 in 10.0 mi South 6.9 mph - N/A   Clear